Regional Weather Roundup
Issued by NWS Charleston, SC

Current Version | Previous Version | Text Only | Print | Product List | Glossary Off
Versions: 1 2 3 4 5 6 7 8 9 10 11 12 13 14 15 16 17 18 19 20 21 22 23 24 25 26 27 28 29 30 31 32 33 34 35 36 37 38 39 40 41 42 43 44 45 46 47 48 49 50

000
ASUS42 KCHS 231912
RWRCHS

REGIONAL WEATHER ROUNDUP
NATIONAL WEATHER SERVICE CHARLESTON SC
300 PM EDT THU MAR 23 2017

NOTE: "FAIR" INDICATES FEW OR NO CLOUDS BELOW 12,000 FEET WITH NO
SIGNIFICANT WEATHER AND/OR OBSTRUCTIONS TO VISIBILITY.

NOT ALL STATIONS ARE QUALITY CONTROLLED. USE DATA WITH CAUTION...
ESPECIALLY DEWPOINT OBSERVATIONS.

SCZ027-030-031-034>040-042>050-232000-
...SOUTHEAST SOUTH CAROLINA...

CITY           SKY/WX    TMP DP  RH WIND       PRES   REMARKS
N CHARLESTON   MOSUNNY   63  38  39 E15G25    30.48F
WATERFRONT PRK   N/A     57  48  72 E15       30.49F
JOHNS ISLAND   FAIR      61  46  59 NE21      30.48F
PINOPOLIS        N/A     61  36  39 VRB3      30.40F
MONCKS CORNER  CLOUDY    61  30  31 NE10G16   30.49F HAZE
SUMMERVILLE    FAIR      63  34  34 E5        30.48F
BEAUFORT MCAS  SUNNY     65  42  43 E12G20    30.46F
BEAUFORT ARPT  FAIR      63  45  51 NE14G22   30.46F
HILTON HEAD IS SUNNY     59  50  72 NE15G31   30.47S
WALTERBORO     CLEAR     64  36  34 E13       30.47F
ALLENDALE      FAIR      64  34  32 VRB6G13   30.45F

...SOUTHERN MIDLANDS AND PEE DEE...

CITY           SKY/WX    TMP DP  RH WIND       PRES   REMARKS
GEORGETOWN     FAIR      55  37  50 NE15G23   30.53F
KINGSTREE      FAIR      61  21  21 NE8       30.50F
ORANGEBURG     SUNNY     61  26  26 NE8G16    30.49F
BARNWELL       FAIR      64  34  32 E9G16     30.47F
AIKEN          FAIR      61  28  29 E8        30.50F
MANNING        FAIR      61  -2   8 CALM      30.50F
COLUMBIA       MOSUNNY   62  22  21 E12       30.49F
SUMTER         SUNNY     60  22  23 NE9       30.48F
FLORENCE       SUNNY     58  24  27 E8        30.52F
MYRTLE BEACH   SUNNY     55  34  44 SE15      30.54F
N MYRTLE BEACH SUNNY     55  33  43 E16       30.53F

$$

GAZ063-065-086>088-099>101-113>116-118-119-134>141-150-232000-
...SOUTHEAST GEORGIA...

CITY           SKY/WX    TMP DP  RH WIND       PRES   REMARKS
SAVANNAH ARPT  MOSUNNY   67  42  40 E16G24    30.44F
HUNTER AAF     NOT AVBL
FORT STEWART   PTSUNNY   68  46  45 E18G28    30.40F
STATESBORO     MOSUNNY   69  46  44 E10       30.43F
SYLVANIA       PTCLDY   N/A N/A N/A E9G16     30.45F
CLAXTON        MOCLDY    68  49  50 E8G18     30.42F

...CSRA...CENTRAL AND FAR SOUTHEAST GEORGIA...

CITY           SKY/WX    TMP DP  RH WIND       PRES   REMARKS
THOMSON        SUNNY     63  31  30 SE12      30.50F
AUGUSTA-BUSH   MOSUNNY   68  31  25 E12       30.45F
AUGUSTA-DANIEL MOSUNNY   64  27  24 E8        30.46F
SWAINSBORO     FAIR      66  43  42 NE10G17   30.43F
VIDALIA        CLOUDY    68  46  45 E13       30.42F
EASTMAN        CLOUDY    67  33  28 E8        30.45S
HAZLEHURST     CLOUDY    67  50  56 E8G18     30.40S
ALMA           CLOUDY    68  52  56 E12G20    30.39F
WAYCROSS       CLOUDY    71  56  58 E15G24    30.39S
JESUP          CLOUDY    66  46  48 E15G21    30.42S
BAXLEY         CLOUDY    68  54  60 E15       30.40S
BRUNSWICK      PTSUNNY   68  54  60 NE22G30   30.42S
SAINT SIMONS   CLOUDY    66  48  52 NE23G31   30.40F

$$

SCZ027-028-034-036>038-045-046-048>050-GAZ119-141-232000-
...LAKE AND SUPPLEMENTAL COASTAL OBSERVATIONS...

STATION/POSITION TIME  TEMP    WIND        PRES    WAVE   SWELL
                       AIR SEA DIR/SP/G            HT/PER HT/PER/DIR
                 (UTC) (F)     (DEG/KT/KT) (MB)    (FT/S) (FT/S/D)
WINYAH BAY       NOT AVBL
LAKE MURRAY      1820   56      80/  6/ 10 1032.5
ACE BASIN NERRS  NOT AVBL
FORT PULASKI     1842   57 61   60/ 22/ 29 1031.5F
SAPELO ISLAND    1800   65      50/ 18     1030.0

$$

ANZ835-935-AMZ111-154-330-350-352-354-370-450-454-472-232000-
...C-MAN AND BUOY OBSERVATIONS...

STATION/POSITION TIME  TEMP    WIND        PRES    WAVE   SWELL
                       AIR SEA DIR/SP/G            HT/PER HT/PER/DIR
                 (UTC) (F)     (DEG/KT/KT) (MB)    (FT/S) (FT/S/D)
BUOY 41004       1850   59 71   30/ 23/ 29 1030.6F   6/ 6   2/ 90/ 9
BUOY 41008       1750   62 62   60/ 21/ 25 1029.3    7/ 7
FOLLY BEACH CMAN 1800   54      50/ 25/ 28 1033.4F
CAPERS NEARSHORE 1808   54      60/ 21/ 29 1032.7F
FRIPP NEARSHORE  1808   56 60   60/ 23/ 29 1032.1F


STATION/POSITION TIME  TEMP    WIND        PRES    WAVE   SWELL
                       AIR SEA DIR/SP/G            HT/PER HT/PER/DIR
                 (UTC) (F)     (DEG/KT/KT) (MB)    (FT/S) (FT/S/D)
5E ST. MARYS GA  1830      63                N/A     7/ 7   2/ 80/11
FRYING PAN BUOY  1850   54 65   40/ 17/ 25 1033.5F   6/ 6   3/100/10
BUOY 41025       1850   46 74   30/ 16/ 21 1035.0F   9/11   8/ 60/11
CAPE LOOKOUT NC  1900   45      30/ 18/ 22 1035.0F
BUOY 41002       1850   60 72   40/ 17/ 23 1030.0S   7/ 9   5/ 40/ 9
BUOY 41010       NOT AVBL
ST AUGUSTINE FL  1900   67 65   80/ 15/ 17 1028.4R


$$



USA.gov is the U.S. government's official web portal to all federal, state and local government web resources and services.